User: anonymous   Login
Location: Middle Street
(51.7167°N, 0.0333°E)
Time: 02:50:38
(UTC+00:00)
Language:

Meteor 2-5 Rocket - Orbit

View from above orbital plane
View from above orbital plane
View from above satellite
View from above satellite

Ground track
Ground track

The orbit data is extracted from the following two-line orbital elements,

1 11608U 79095B   21101.61112772  .00000004  00000-0 -49090-5 0  9990
2 11608  81.2105 297.7760 0053878 203.9204 155.9461 14.06172376125808
Epoch (UTC): 11 April 2021 14:40:01
Eccentricity: 0.0053878
inclination: 81.2105°
perigee height: 833 km
apogee height: 911 km
right ascension of ascending node: 297.7760°
argument of perigee: 203.9204°
revolutions per day: 14.06172376
mean anomaly at epoch: 155.9461°
orbit number at epoch: 12580

The dashed part of the orbit path shows where the satellite is in the earth's shadow,  

DLR